Location: Newark
(44.2886°N, 4.8431°E)
Time: 13:51:28
(UTC+00:00)

ZACube-1 - Pass Details

Date: 01 December 2020
Orbit: 584 x 665 km, 97.6° (Epoch: 14 January)

Event Time Altitude Azimuth Distance (km) Brightness Sun altitude
Rises 05:34:09 0° 5° (N) 2,827 ? -14.3°
Reaches altitude 10° 05:36:23 10° 358° (N) 1,927 ? -13.9°
Maximum altitude 05:40:17 40° 289° (WNW) 885 ? -13.3°
Drops below altitude 10° 05:44:14 10° 220° (SW) 1,943 ? -12.6°
Sets 05:46:30 0° 212° (SSW) 2,854 ? -12.2°
